Regional Weather Roundup
Issued by NWS

Home | Current Version | Previous Version | Graphics & Text | Print | Product List | Glossary On
Versions: 1 2 3 4 5 6 7 8 9 10 11 12 13 14 15 16 17 18 19 20 21 22 23 24 25 26 27 28 29 30 31 32 33 34 35 36 37 38 39 40 41 42 43 44 45 46 47 48 49 50
000
ASUS43 KOAX 201702
RWRNE

WEATHER ROUNDUP FOR NEBRASKA
NATIONAL WEATHER SERVICE OMAHA NE
1100 AM CST THU NOV 20 2014

NOTES: SATELLITE DATA IS BEING USED TO AUGMENT CLOUD COVER ABOVE
       12000 FEET.
       "FAIR" INDICATES FEW OR NO CLOUDS BELOW 12,000 FEET WITH NO
       SIGNIFICANT WEATHER AND/OR OBSTRUCTIONS TO VISIBILITY.

  * THESE STATIONS DO NOT REPORT WEATHER SUCH AS RAIN...SNOW OR FOG.

NEZ001>004-019>022-054>056-201800-
NEBRASKA PANHANDLE

CITY           SKY/WX    TMP DP  RH WIND       PRES   REMARKS
SCOTTSBLUFF    SUNNY     32  22  66 CALM      30.02F
ALLIANCE       SUNNY     32  23  69 S7        30.01F WCI  26
CHADRON        SUNNY     26  20  77 SW3       30.01F
KIMBALL        SUNNY     45  18  34 SW7       30.00S
SIDNEY         SUNNY     43  21  41 NW5       30.02S
$$

NEZ057>060-069>072-079>082-201800-
SOUTHWEST NEBRASKA

CITY           SKY/WX    TMP DP  RH WIND       PRES   REMARKS
NORTH PLATTE   SUNNY     27  19  72 CALM      30.09F
IMPERIAL       SUNNY     37  21  52 N5        30.06F WCI  33
LEXINGTON      SUNNY     29  21  71 E5        30.11F WCI  24
MCCOOK         SUNNY     28  19  69 CALM      30.09F
OGALLALA       SUNNY     33  23  66 CALM      30.06F
$$

NEZ005>010-023>029-035>040-094-201800-
NORTH CENTRAL NEBRASKA

CITY           SKY/WX    TMP DP  RH WIND       PRES   REMARKS
VALENTINE      SUNNY     20  14  77 CALM      30.09S
AINSWORTH      SUNNY     24  18  79 SE6       30.10S WCI  17
BROKEN BOW     SUNNY     28  19  69 SE6       30.11F WCI  22
O`NEILL        CLOUDY    21  16  79 CALM      30.17S
ORD            SUNNY     28  18  66 SE7       30.15S WCI  21
THEDFORD       SUNNY     28  27  97 S3        30.08F
$$

NEZ041-046>049-061>064-073>077-083>087-201800-
SOUTH CENTRAL NEBRASKA

CITY           SKY/WX    TMP DP  RH WIND       PRES   REMARKS
GRAND ISLAND   SUNNY     28  18  66 SE7       30.19S WCI  21
AURORA         SUNNY     26  19  72 SE5       30.18F WCI  21
HASTINGS       SUNNY     31  18  58 SE12      30.16S WCI  22
HEBRON           N/A     31  18  58 SE6       30.21  WCI  25
HOLDREGE       SUNNY     29  19  66 SE6       30.13R WCI  23
KEARNEY *      SUNNY     28  18  64 SE12      30.16S WCI  18
YORK           SUNNY     25  18  74 CALM      30.21S
$$

NEZ011>018-030>034-042>045-201800-
NORTHEAST NEBRASKA

CITY           SKY/WX    TMP DP  RH WIND       PRES   REMARKS
NORFOLK        SUNNY     24  14  65 W3        30.20R
ALBION         PTSUNNY   25  17  71 CALM      30.18S
BLAIR          CLOUDY    25  16  68 W3        30.23R
COLUMBUS *     MOSUNNY   23  14  68 CALM      30.23R
FREMONT        CLOUDY    24  17  75 CALM      30.24R
TEKAMAH        CLOUDY    26  16  65 NW7       30.24S WCI  18
WAYNE          MOSUNNY   25  15  66 NW8       30.21S WCI  16
$$

NEZ050>053-065>068-078-088>093-201800-
SOUTHEAST NEBRASKA

CITY           SKY/WX    TMP DP  RH WIND       PRES   REMARKS
LINCOLN        SUNNY     28  17  63 CALM      30.25F
OMAHA EPPLEY   CLOUDY    27  16  63 N5        30.26R WCI  22
BEATRICE       SUNNY     29  19  67 SE3       30.24S
FALLS CITY     SUNNY     28  17  63 NW6       30.26R WCI  22
NEBRASKA CITY  SUNNY     28  14  55 CALM      30.25S
PLATTSMOUTH    CLOUDY    25  16  68 NW3       30.24S
$$

NEZ044-045-051>053-067-201800-
OMAHA AREA

CITY           SKY/WX    TMP DP  RH WIND       PRES   REMARKS
OMAHA EPPLEY   CLOUDY    27  16  63 N5        30.26R WCI  22
BLAIR          CLOUDY    25  16  68 W3        30.23R
FREMONT        CLOUDY    24  17  75 CALM      30.24R
MILLARD        CLOUDY    26  16  65 CALM      30.25R
OFFUTT AFB     CLOUDY    26  15  65 W5        30.24S WCI  20
PLATTSMOUTH    CLOUDY    25  16  68 NW3       30.24S
WAHOO          CLOUDY    25  17  73 N3        30.24R
$$


USA.gov is the U.S. government's official web portal to all federal, state and local government web resources and services.